Regional Weather Roundup
Issued by NWS New Orleans/Baton Rouge, LA

Home | Current Version | Previous Version | Text Only | Print | Product List | Glossary On
Versions: 1 2 3 4 5 6 7 8 9 10 11 12 13 14 15 16 17 18 19 20 21 22 23 24 25 26 27 28
000
ASUS44 KLIX 251911
RWRLIX
NEW ORLEANS REGIONAL WEATHER ROUNDUP
NATIONAL WEATHER SERVICE NEW ORLEANS LA
200 PM CDT SUN SEP 25 2016

NOTE: "FAIR" INDICATES FEW OR NO CLOUDS BELOW 12,000 FEET WITH NO
      SIGNIFICANT WEATHER AND/OR OBSTRUCTIONS TO VISIBILITY.
      SKY/WX - SKY CONDITION AND SIGNIFICANT WEATHER.
      TMP - AIR TEMPERATURE.     DP    - DEWPOINT TEMPERATURE.
      RH  - RELATIVE HUMIDITY.   PRES  - PRESSURE.
      HI  - HEAT INDEX.          WCI   - WIND CHILL INDEX.

*  THESE STATIONS ARE NOT NWS OR FAA STATIONS AND ARE NOT UNDER
   NWS QUALITY CONTROL.

LAZ038-040-048-061>063-065>067-069-252000-
SOUTHEAST LOUISIANA

CITY           SKY/WX    TMP DP  RH WIND       PRES   REMARKS
N.O. AUDUBON     N/A     93  74  53 MISG        N/A  HX 103
N.O. INTL ARPT MOSUNNY   91  76  61 NW5       30.01F HX 103
N.O. LAKEFRONT   N/A     88  71  57 N7        30.01F
N.O. DOWNTOWN*   N/A     91  70  49 SE5       30.01F HX  96
RESERVE*         N/A     92  69  46 S9        30.01F HX  96
SLIDELL        MOSUNNY   91  69  48 VRB6      30.00F HX  96
BATON ROUGE    MOSUNNY   92  68  45 E5        30.00F HX  96
BOOTHVILLE     SUNNY     87  73  62 NE6       30.03F
BELLE CHASSE   MOSUNNY   89  73  59 SE6       30.01F HX  97
BOGALUSA*        N/A     92  67  44 CALM      30.02F HX  96
GALLIANO*      NOT AVBL
NEW ROADS*       N/A     90  70  51 MISG      30.01F
GONZALES*        N/A     90  69  50 CALM      29.99F
HAMMOND*       PTSUNNY   95  63  34 S6        30.00F HX  96
HOUMA*         MOSUNNY   86  75  70 SW15      30.01F HX  95
PORT FOURCHON* MOCLDY    86  72  62 SE7       30.02F

$$

MSZ070-080>082-252000-
SOUTHERN MISSISSIPPI

CITY           SKY/WX    TMP DP  RH WIND       PRES   REMARKS
MCCOMB         SUNNY     90  68  48 VRB5      30.02F
GULFPORT       SUNNY     92  71  50 SE5       30.00F HX  98
BILOXI         SUNNY     91  73  55 SW9       30.00F HX  99
PASCAGOULA     SUNNY     92  76  59 VRB6      30.00F HX 104
STENNIS ARPT*  MOSUNNY   88  64  45 VRB5      30.01F

$$

COASTAL OBSERVATIONS
LAKE AND NEARSHORE STATIONS

STATION/POSITION TIME  TEMP    WIND        PRES    WAVE
                       AIR SEA DIR/SP/G            HT/PER
                 (UTC) (F)     (DEG/KT/KT) (MB)    (FT/S)
PASCAGOULA       1800   88     240/  7/ 10 1016.5
WAVELAND YACHT   1800   87 86  160/  7/  9 1017.0
GRAND ISLE       1800   86 87  140/  1/  7 1017.5
SOUTHWEST PASS   1800          160/  1/  3   N/A
NEW CANAL        1800   84 86   20/  5/  7 1016.1
SHELL BEACH      1800   84 87  350/  4/  5 1017.2

OFFSHORE STATIONS

STATION/POSITION TIME  TEMP    WIND        PRES    WAVE
                       AIR SEA DIR/SP/G            HT/PER
                 (UTC) (F)     (DEG/KT/KT) (MB)    (FT/S)
64 S DAUPHIN ISL 1800   83 85   40/  2/  4 1016.9

$$





USA.gov is the U.S. government's official web portal to all federal, state and local government web resources and services.